Lid_Strength_Index
-1 -1 -1 -1 -1 -1 -1 -1 -1 -1 -1 -1 -1 -0 -0 -1 1 2 4 1 -0 0 1 1 2 3 2 4 4 4 8 10 9 9 8 7 6 5 4 5 4 4 4 3 2
-1 -1 -1 -1 -1 -1 -1 -1 -1 -1 -1 -1 -1 -1 0 -0 1 3 -1 -0 -1 -0 1 3 3 3 4 4 5 6 8 8 6 6 7 7 6 5 6 6 5 5 3 2 2
-1 -1 -1 -1 -1 -1 -1 -1 -1 -1 -1 -1 -1 -0 -0 -0 4 4 -1 -0 -1 1 1 1 2 3 5 4 5 6 8 6 6 6 6 6 7 6 6 7 6 5 4 3 3
-1 -1 -1 -1 -1 -1 -1 -1 -1 -1 -1 -1 -1 -0 0 1 11 2 -1 -1 -0 1 3 2 3 5 6 7 5 7 6 6 6 7 7 7 6 7 6 6 5 4 3 3 4
-1 -1 -1 -1 -1 -1 -1 -1 -1 -1 -1 -1 -1 -0 1 5 5 -1 -1 -0 1 1 2 4 5 5 7 6 6 7 6 6 5 6 6 6 7 7 6 4 5 5 4 3 3
-1 -1 -1 -1 -1 -1 -1 -1 -1 -1 -1 -1 -1 -0 3 9 -0 -1 0 1 2 2 2 3 4 4 6 6 7 5 6 6 5 6 6 7 6 8 6 4 5 5 5 4 3
-1 -1 -1 -1 -1 -1 -1 -1 -1 -1 -1 -1 -1 -0 4 5 -0 -1 1 1 1 2 4 2 3 5 4 7 5 6 8 7 6 6 6 6 8 7 5 6 6 6 5 4 3
-1 -1 -1 -1 -1 -1 -1 -1 -1 -1 -1 -1 -1 1 6 -0 -1 0 -0 1 0 1 2 2 2 4 5 4 6 8 8 11 7 6 6 6 10 6 4 5 6 6 6 5 4
-1 -1 -1 -1 -1 -1 -1 -1 -1 -1 -1 -1 1 3 7 -0 2 0 0 3 2 1 1 2 3 6 6 9 10 9 13 11 9 6 7 7 9 6 4 5 5 6 5 5 4
-1 -1 -1 -1 -1 -1 -1 -1 -1 -1 -1 -0 1 6 4 6 2 2 0 1 4 4 5 6 7 9 10 11 16 13 13 11 11 8 8 9 9 6 5 6 5 5 5 5 5
-1 -1 -1 -1 -1 -1 -0 1 4 5 3 6 6 6 5 3 1 3 2 3 4 6 10 8 11 13 11 10 11 11 12 12 9 8 9 9 9 7 6 6 5 5 5 5 5
-1 -1 -1 -1 -1 -1 0 4 4 2 8 3 4 4 3 2 7 5 2 7 8 11 9 11 13 9 8 9 11 12 13 13 10 8 9 9 10 7 6 6 6 5 5 5 5
-1 -1 -1 -1 -1 0 2 3 -0 0 7 6 4 5 5 4 7 7 4 6 9 11 11 12 10 8 9 11 12 12 13 13 13 10 9 10 11 9 7 6 5 5 4 4 5
-1 -0 -1 -1 2 2 3 0 -0 0 12 11 8 6 5 4 8 4 3 6 8 11 9 10 7 9 10 11 10 14 10 11 12 13 16 10 17 11 8 7 6 6 5 5 4
-1 0 -0 -1 2 4 2 -0 -0 3 20 9 8 2 4 7 6 7 3 6 10 9 9 11 10 11 11 11 9 11 9 10 11 13 14 12 15 11 8 9 8 6 5 5 4
-0 -0 -1 1 1 1 0 0 3 14 20 13 8 9 9 8 8 7 7 5 6 9 9 10 7 8 9 8 8 9 11 11 11 13 19 13 13 12 10 9 8 6 5 5 4
-0 0 0 0 4 -0 0 4 14 18 11 13 12 9 10 11 10 9 10 11 13 15 15 12 11 9 8 11 9 10 13 19 20 20 18 11 13 12 9 8 7 7 6 6 5
0 -0 0 0 0 1 3 10 18 14 13 9 10 10 12 10 10 10 11 13 10 12 14 16 18 11 8 10 12 13 13 17 21 20 16 13 15 12 8 7 6 6 6 6 6
-0 1 2 1 0 1 7 15 15 13 10 11 10 13 13 11 10 11 11 12 11 10 15 16 16 9 8 8 9 13 15 10 15 15 17 13 11 9 8 8 8 8 7 7 6
2 3 3 0 0 3 10 13 12 8 8 9 14 11 15 13 13 12 12 10 11 9 8 11 16 11 9 8 8 10 9 16 15 20 20 14 13 13 10 10 8 8 8 7 7
3 7 3 -0 3 7 13 13 11 7 7 10 11 12 11 13 11 12 11 9 8 9 8 9 12 14 11 13 14 13 14 13 13 16 18 18 14 9 9 8 9 8 8 7 8
4 10 2 1 11 10 12 11 8 8 6 8 7 9 11 10 11 11 11 9 6 7 11 9 12 16 14 9 8 10 12 13 16 18 16 16 15 7 7 7 8 8 7 8 8
8 8 2 4 13 12 10 9 8 8 8 8 9 8 7 10 13 10 9 7 7 7 10 10 14 17 16 12 10 12 10 11 11 13 17 19 15 7 7 7 7 7 5 5 6
7 11 8 8 10 10 11 11 10 7 8 7 8 7 9 11 10 11 10 8 6 7 7 8 11 14 16 13 10 13 11 10 11 15 15 14 12 9 8 7 6 6 5 5 5
6 10 10 12 12 9 9 9 11 11 8 7 9 9 10 12 11 12 9 9 7 7 7 8 13 11 10 10 10 10 11 11 12 11 14 12 11 9 7 7 6 5 5 5 5
8 9 9 11 9 9 9 11 11 10 9 10 10 8 8 11 10 12 9 9 10 8 9 8 14 11 13 10 10 12 11 11 11 11 11 11 11 7 6 6 6 6 5 6 6
5 4 7 9 10 10 10 10 10 9 8 7 7 8 9 8 6 6 6 6 7 8 9 10 12 14 16 12 12 16 12 11 10 9 10 14 10 7 8 7 6 6 6 6 6